PWSweather.com
Personal Weather Stations
Station Observations
VPOKROGLO
Kal Nad Kanalom, PrimorskaSI

Kal Nad KanalomPrimorskaSI

Lat: 46.072, Lon: 13.734

Elevation: 2526

Station Type: WS-2355

http://www.okroglovreme.com

Latest ConditionsUpdated 11:00:09 AM GMT+01:01 Wednesday, Apr 16, 2014
Currently Today's Max Today's Min Today's Average
Temperature 49.8°F9.9°C 49.8°F9.9°C 36.1°F2.3°C 40.6°F4.8°C
Dew Point 24.4°F-4.2°C 24.4°F-4.2°C 17.2°F-8.2°C 19.4°F-7.0°C
Winds 3.9 mph N6.3 kmh N 3.9 mph N6.3 kmh N - 1.5 mph 2.4 kmh
Wind Gusts 9.2 mph14.8 kmh 11.4 mph18.3 kmh - -
Humidity 37% 47% 37% 43%
Pressure 30.16 in1021.3 mb 30.17 in1021.7 mb 30.10 in1019.3 mb -
Hour Temp Dew Point Humidity Winds Wind Gusts Pressure Precip Precip Rate Daily Precip Total
11:00 AM 49.8°F9.9°C 24.4°F-4.2°C 37% 3.9 mph N6.3 kmh N 9.2 mph14.8 kmh 30.16 in1021.3 mb 0.00 in0.0 mm 0.00 in/hr0.0 mm/hr 0.00 in0.0 mm
10:45 AM 49.1°F9.5°C 23.8°F-4.6°C 37% 2.9 mph N4.7 kmh N 11.4 mph18.3 kmh 30.16 in1021.3 mb 0.00 in0.0 mm 0.00 in/hr0.0 mm/hr 0.00 in0.0 mm
10:30 AM 48.7°F9.3°C 23.5°F-4.7°C 37% 3.6 mph N5.8 kmh N 10.5 mph16.9 kmh 30.16 in1021.3 mb 0.00 in0.0 mm 0.00 in/hr0.0 mm/hr 0.00 in0.0 mm
10:15 AM 48.0°F8.9°C 22.8°F-5.1°C 37% 3.5 mph N5.6 kmh N 6.7 mph10.8 kmh 30.16 in1021.3 mb 0.00 in0.0 mm 0.00 in/hr0.0 mm/hr 0.00 in0.0 mm
10:00 AM 47.8°F8.8°C 23.3°F-4.8°C 38% 1.5 mph NE2.4 kmh NE 6.5 mph10.5 kmh 30.17 in1021.7 mb 0.00 in0.0 mm 0.00 in/hr0.0 mm/hr 0.00 in0.0 mm
09:45 AM 47.1°F8.4°C 22.7°F-5.2°C 38% 3.9 mph N6.3 kmh N 9.6 mph15.4 kmh 30.16 in1021.3 mb 0.00 in0.0 mm 0.00 in/hr0.0 mm/hr 0.00 in0.0 mm
09:30 AM 46.9°F8.3°C 22.5°F-5.3°C 38% 2.7 mph N4.3 kmh N 10.3 mph16.6 kmh 30.17 in1021.7 mb 0.00 in0.0 mm 0.00 in/hr0.0 mm/hr 0.00 in0.0 mm
09:15 AM 46.2°F7.9°C 22.5°F-5.3°C 39% 2.2 mph NE3.5 kmh NE 7.2 mph11.6 kmh 30.16 in1021.3 mb 0.00 in0.0 mm 0.00 in/hr0.0 mm/hr 0.00 in0.0 mm
09:00 AM 45.1°F7.3°C 21.6°F-5.8°C 39% 2.8 mph N4.5 kmh N 7.4 mph11.9 kmh 30.16 in1021.3 mb 0.00 in0.0 mm 0.00 in/hr0.0 mm/hr 0.00 in0.0 mm
08:45 AM 44.6°F7.0°C 21.7°F-5.7°C 40% 2.9 mph N4.7 kmh N 7.6 mph12.2 kmh 30.17 in1021.7 mb 0.00 in0.0 mm 0.00 in/hr0.0 mm/hr 0.00 in0.0 mm
08:30 AM 44.2°F6.8°C 21.4°F-5.9°C 40% 3.1 mph NNE5.0 kmh NNE 8.5 mph13.7 kmh 30.16 in1021.3 mb 0.00 in0.0 mm 0.00 in/hr0.0 mm/hr 0.00 in0.0 mm
08:15 AM 43.5°F6.4°C 21.3°F-5.9°C 41% 2.8 mph N4.5 kmh N 6.9 mph11.1 kmh 30.16 in1021.3 mb 0.00 in0.0 mm 0.00 in/hr0.0 mm/hr 0.00 in0.0 mm
08:00 AM 42.6°F5.9°C 21.0°F-6.1°C 42% 2.7 mph N4.3 kmh N 7.6 mph12.2 kmh 30.15 in1021.0 mb 0.00 in0.0 mm 0.00 in/hr0.0 mm/hr 0.00 in0.0 mm
07:45 AM 41.7°F5.4°C 20.2°F-6.6°C 42% 2.8 mph N4.5 kmh N 8.5 mph13.7 kmh 30.15 in1021.0 mb 0.00 in0.0 mm 0.00 in/hr0.0 mm/hr 0.00 in0.0 mm
07:30 AM 41.2°F5.1°C 19.7°F-6.8°C 42% 3.1 mph N5.0 kmh N 7.4 mph11.9 kmh 30.14 in1020.7 mb 0.00 in0.0 mm 0.00 in/hr0.0 mm/hr 0.00 in0.0 mm
07:15 AM 40.5°F4.7°C 19.6°F-6.9°C 43% 3.5 mph NNE5.6 kmh NNE 9.4 mph15.1 kmh 30.14 in1020.7 mb 0.00 in0.0 mm 0.00 in/hr0.0 mm/hr 0.00 in0.0 mm
07:00 AM 39.4°F4.1°C 19.1°F-7.2°C 44% 1.6 mph N2.6 kmh N 4.3 mph6.9 kmh 30.14 in1020.7 mb 0.00 in0.0 mm 0.00 in/hr0.0 mm/hr 0.00 in0.0 mm
06:45 AM 38.8°F3.8°C 19.2°F-7.1°C 45% 1.4 mph N2.3 kmh N 6.0 mph9.7 kmh 30.14 in1020.7 mb 0.00 in0.0 mm 0.00 in/hr0.0 mm/hr 0.00 in0.0 mm
06:30 AM 37.9°F3.3°C 18.9°F-7.3°C 46% 1.4 mph NNE2.3 kmh NNE 6.5 mph10.5 kmh 30.13 in1020.3 mb 0.00 in0.0 mm 0.00 in/hr0.0 mm/hr 0.00 in0.0 mm
06:15 AM 37.9°F3.3°C 18.9°F-7.3°C 46% 0.8 mph SE1.3 kmh SE 4.9 mph7.9 kmh 30.13 in1020.3 mb 0.00 in0.0 mm 0.00 in/hr0.0 mm/hr 0.00 in0.0 mm
06:00 AM 37.9°F3.3°C 18.9°F-7.3°C 46% 1.0 mph E1.6 kmh E 6.0 mph9.7 kmh 30.12 in1020.0 mb 0.00 in0.0 mm 0.00 in/hr0.0 mm/hr 0.00 in0.0 mm
05:45 AM 37.8°F3.2°C 18.7°F-7.4°C 46% 1.0 mph NNE1.6 kmh NNE 5.1 mph8.2 kmh 30.12 in1020.0 mb 0.00 in0.0 mm 0.00 in/hr0.0 mm/hr 0.00 in0.0 mm
05:30 AM 37.0°F2.8°C 18.6°F-7.4°C 47% 0.8 mph N1.3 kmh N 3.1 mph5.0 kmh 30.11 in1019.6 mb 0.00 in0.0 mm 0.00 in/hr0.0 mm/hr 0.00 in0.0 mm
05:15 AM 36.1°F2.3°C 17.8°F-7.9°C 47% 0.2 mph N0.3 kmh N 2.7 mph4.3 kmh 30.10 in1019.3 mb 0.00 in0.0 mm 0.00 in/hr0.0 mm/hr 0.00 in0.0 mm
05:00 AM 36.1°F2.3°C 17.8°F-7.9°C 47% 0.1 mph N0.2 kmh N 2.0 mph3.2 kmh 30.11 in1019.6 mb 0.00 in0.0 mm 0.00 in/hr0.0 mm/hr 0.00 in0.0 mm
04:45 AM 36.5°F2.5°C 17.6°F-8.0°C 46% 0.1 mph SE0.2 kmh SE 1.3 mph2.1 kmh 30.10 in1019.3 mb 0.00 in0.0 mm 0.00 in/hr0.0 mm/hr 0.00 in0.0 mm
04:30 AM 36.7°F2.6°C 17.7°F-7.9°C 46% 0.4 mph N0.6 kmh N 2.7 mph4.3 kmh 30.11 in1019.6 mb 0.00 in0.0 mm 0.00 in/hr0.0 mm/hr 0.00 in0.0 mm
04:15 AM 36.3°F2.4°C 17.4°F-8.1°C 46% 0.2 mph NW0.3 kmh NW 2.9 mph4.7 kmh 30.10 in1019.3 mb 0.00 in0.0 mm 0.00 in/hr0.0 mm/hr 0.00 in0.0 mm
04:00 AM 36.3°F2.4°C 17.4°F-8.1°C 46% Calm Calm -- 30.10 in1019.3 mb 0.00 in0.0 mm 0.00 in/hr0.0 mm/hr 0.00 in0.0 mm
03:45 AM 36.7°F2.6°C 17.2°F-8.2°C 45% Calm Calm -- 30.10 in1019.3 mb 0.00 in0.0 mm 0.00 in/hr0.0 mm/hr 0.00 in0.0 mm
03:30 AM 37.6°F3.1°C 17.5°F-8.1°C 44% 0.3 mph N0.5 kmh N 2.5 mph4.0 kmh 30.10 in1019.3 mb 0.00 in0.0 mm 0.00 in/hr0.0 mm/hr 0.00 in0.0 mm
03:15 AM 37.6°F3.1°C 17.5°F-8.1°C 44% 0.7 mph N1.1 kmh N 6.0 mph9.7 kmh 30.10 in1019.3 mb 0.00 in0.0 mm 0.00 in/hr0.0 mm/hr 0.00 in0.0 mm
03:00 AM 37.8°F3.2°C 17.7°F-7.9°C 44% 0.3 mph N0.5 kmh N 2.0 mph3.2 kmh 30.10 in1019.3 mb 0.00 in0.0 mm 0.00 in/hr0.0 mm/hr 0.00 in0.0 mm
02:45 AM 37.6°F3.1°C 17.5°F-8.1°C 44% 0.5 mph N0.8 kmh N 3.4 mph5.5 kmh 30.10 in1019.3 mb 0.00 in0.0 mm 0.00 in/hr0.0 mm/hr 0.00 in0.0 mm
02:30 AM 38.1°F3.4°C 17.5°F-8.1°C 43% Calm Calm 1.3 mph2.1 kmh 30.10 in1019.3 mb 0.00 in0.0 mm 0.00 in/hr0.0 mm/hr 0.00 in0.0 mm
02:15 AM 38.8°F3.8°C 17.6°F-8.0°C 42% 1.0 mph N1.6 kmh N 3.8 mph6.1 kmh 30.10 in1019.3 mb 0.00 in0.0 mm 0.00 in/hr0.0 mm/hr 0.00 in0.0 mm
02:00 AM 39.0°F3.9°C 17.8°F-7.9°C 42% 1.4 mph N2.3 kmh N 4.0 mph6.4 kmh 30.10 in1019.3 mb 0.00 in0.0 mm 0.00 in/hr0.0 mm/hr 0.00 in0.0 mm
01:45 AM 39.0°F3.9°C 17.8°F-7.9°C 42% 1.7 mph N2.7 kmh N 4.0 mph6.4 kmh 30.10 in1019.3 mb 0.00 in0.0 mm 0.00 in/hr0.0 mm/hr 0.00 in0.0 mm
01:30 AM 39.0°F3.9°C 17.8°F-7.9°C 42% 1.1 mph N1.8 kmh N 7.6 mph12.2 kmh 30.10 in1019.3 mb 0.00 in0.0 mm 0.00 in/hr0.0 mm/hr 0.00 in0.0 mm
01:15 AM 39.0°F3.9°C 17.8°F-7.9°C 42% 0.9 mph NNE1.4 kmh NNE 3.1 mph5.0 kmh 30.10 in1019.3 mb 0.00 in0.0 mm 0.00 in/hr0.0 mm/hr 0.00 in0.0 mm
01:00 AM 39.0°F3.9°C 17.8°F-7.9°C 42% 1.1 mph N1.8 kmh N 3.4 mph5.5 kmh 30.11 in1019.6 mb 0.00 in0.0 mm 0.00 in/hr0.0 mm/hr 0.00 in0.0 mm
12:45 AM 39.2°F4.0°C 17.9°F-7.8°C 42% 0.6 mph N1.0 kmh N 3.1 mph5.0 kmh 30.11 in1019.6 mb 0.00 in0.0 mm 0.00 in/hr0.0 mm/hr 0.00 in0.0 mm
12:30 AM 39.6°F4.2°C 18.2°F-7.7°C 42% 0.9 mph NNE1.4 kmh NNE 3.6 mph5.8 kmh 30.11 in1019.6 mb 0.00 in0.0 mm 0.00 in/hr0.0 mm/hr 0.00 in0.0 mm
12:15 AM 39.4°F4.1°C 18.1°F-7.7°C 42% 1.6 mph NNE2.6 kmh NNE 6.9 mph11.1 kmh 30.11 in1019.6 mb 0.00 in0.0 mm 0.00 in/hr0.0 mm/hr 0.00 in0.0 mm
12:00 AM 39.4°F4.1°C 18.6°F-7.4°C 43% 0.6 mph NNE1.0 kmh NNE 4.5 mph7.2 kmh 30.11 in1019.6 mb 0.00 in0.0 mm 0.00 in/hr0.0 mm/hr 0.00 in0.0 mm